CYTQ

Tasiujaq Airport

ICAO Code CYTQ
IATA Code YTQ
Name Tasiujaq Airport
Location Tasiujaq, Quebec, CA
Elevation 121 Feet / 36.9 Meters
Latitude 58.66777778
Longitude -69.95583333
METAR CYTQ 130400Z AUTO 00000KT 05/03 A2955
Extra information Display Charts
Runway Length Width Surface Elevation
05 3519 ft 100 ft GRAVEL 121 ft
23 3519 ft 100 ft GRAVEL 103 ft